Theta_e
315 315 314 312 310 310 308 306 305 304 302 301 301 297 296 293 292 295 294 295 294 295 294 295 295 295 295 295 295 295 294 293 293 292 293 294 293 292 293 292 292 292
312 311 309 308 305 305 305 305 304 303 300 298 296 294 292 293 291 293 293 293 293 293 293 293 293 293 293 293 292 292 291 291 291 291 291 290 290 289 289 290 290 289
307 307 307 307 305 302 301 301 301 299 297 294 293 293 292 290 291 289 291 291 291 290 291 291 291 290 290 290 290 289 289 289 290 288 288 287 289 288 287 288 289 288
306 306 305 303 302 299 298 297 295 294 293 293 292 291 292 290 290 289 289 289 289 288 288 288 288 288 288 288 288 287 286 286 285 284 285 283 284 283 285 286 285 285
303 301 301 299 298 297 296 295 293 292 292 291 290 289 289 289 288 286 286 285 286 285 285 285 285 285 285 285 285 286 284 284 283 282 284 283 283 283 284 283 283 284
300 299 298 297 296 295 294 292 292 291 290 289 289 288 287 286 285 285 285 285 284 284 284 284 285 284 283 283 283 283 283 284 283 283 284 283 283 282 283 283 283 284
297 296 295 295 293 292 292 291 290 290 289 287 285 285 285 285 285 285 285 284 285 284 285 284 284 283 282 282 283 283 283 283 284 284 285 283 283 283 282 282 282 283
295 294 293 292 291 290 289 288 287 287 285 285 286 283 284 285 285 283 283 284 285 284 284 283 283 283 282 283 284 284 284 284 284 284 284 284 282 283 283 282 281 282
291 289 288 288 288 287 287 286 286 285 285 286 285 284 282 284 284 284 284 284 284 283 283 283 283 283 282 283 283 284 284 283 283 283 283 283 283 283 283 282 282 282
288 287 287 287 287 287 286 285 285 285 284 285 284 284 284 282 283 283 283 283 283 283 283 283 283 283 283 282 283 283 283 283 283 282 282 282 282 283 282 282 282 282
286 287 287 287 286 286 285 285 284 284 284 284 284 284 283 283 282 281 283 283 284 283 283 283 283 283 283 283 282 280 282 282 282 282 282 282 282 282 283 282 282 281
286 286 287 286 286 285 285 284 284 284 283 282 283 283 282 282 282 282 283 283 282 282 282 282 281 282 282 282 282 282 281 281 281 281 281 282 282 282 282 281 281 282
286 286 286 286 285 285 284 284 283 283 283 283 282 283 283 282 282 282 281 282 282 282 282 282 282 282 281 280 281 281 281 281 280 280 281 280 281 282 281 281 281 281
286 285 285 285 284 284 283 283 283 282 282 281 282 282 282 282 282 282 281 281 281 281 281 280 281 281 280 280 280 280 280 280 280 279 280 280 280 280 280 280 281 281
285 285 284 284 283 283 283 283 282 282 281 282 281 281 281 281 281 281 281 281 280 281 280 280 281 281 281 281 281 281 280 280 280 280 280 280 280 280 280 280 279 279
285 284 283 283 283 283 283 282 282 281 282 281 281 280 280 280 280 280 280 280 280 279 279 280 280 280 284 288 288 283 282 280 280 280 279 279 280 279 279 279 279 279
284 283 283 283 282 282 282 281 281 281 281 281 280 280 280 279 280 279 279 279 279 279 279 279 280 281 287 287 288 288 283 281 280 280 279 279 279 278 278 278 278 279
283 283 282 282 282 282 281 280 280 280 280 280 280 279 279 279 279 278 278 278 278 278 278 278 278 284 286 287 287 287 288 283 280 279 279 279 278 278 278 278 278 278
283 283 282 282 281 281 280 280 280 280 279 279 279 278 278 278 277 278 277 277 277 277 277 277 277 284 285 286 286 287 287 284 279 278 278 278 278 277 277 277 277 277
283 282 282 281 280 280 280 280 280 279 278 277 277 276 277 276 275 277 277 277 277 277 277 277 276 283 285 285 285 286 286 283 278 277 277 277 277 277 277 277 277 277
282 282 281 281 280 280 280 279 279 277 277 276 276 276 276 276 276 275 276 275 276 275 276 276 278 283 284 284 285 285 285 282 277 278 277 276 277 276 276 276 276 277
282 281 281 280 280 279 279 278 278 277 277 275 274 275 274 274 274 275 275 274 274 274 275 275 276 282 283 284 284 284 284 279 276 276 276 276 276 276 276 276 276 276
282 281 280 280 279 278 278 277 276 275 275 274 275 275 275 274 274 273 273 273 273 274 275 276 275 279 281 283 283 284 282 274 274 273 273 275 275 276 276 276 276 276
281 281 280 278 278 278 277 276 275 274 274 274 275 275 274 273 272 273 273 273 273 274 276 276 276 278 280 282 282 283 282 275 273 272 272 273 273 276 277 276 276 278
280 280 279 278 277 277 276 275 275 274 273 272 273 273 272 273 273 274 274 274 274 275 278 276 275 276 279 281 282 282 280 274 274 271 272 275 276 276 276 276 276 277
279 278 277 277 276 275 275 275 274 273 272 272 272 272 272 273 274 275 275 275 275 275 275 275 275 274 276 280 281 281 281 278 274 273 274 275 276 276 275 275 276 275
Wind_Speed
8 8 8 7 5 7 8 8 6 7 6 5 6 5 5 4 3 5 4 5 4 5 4 4 4 5 5 5 5 6 5 4 4 3 4 5 5 4 5 5 4 3
8 8 8 7 6 5 5 6 7 8 6 5 5 5 4 5 3 5 5 5 5 5 4 5 5 5 5 5 5 6 4 4 5 3 5 6 4 4 4 4 4 4
9 9 9 10 9 8 7 6 7 7 7 5 5 5 5 4 5 4 4 5 6 5 5 5 5 5 5 5 5 5 5 5 5 4 5 5 4 5 3 3 4 5
7 8 9 8 8 9 7 8 6 7 6 6 5 5 5 4 5 5 4 5 6 5 5 5 5 5 5 4 5 5 5 5 3 3 4 3 4 3 4 4 2 4
9 8 7 7 6 8 7 8 8 7 6 6 6 5 6 5 6 5 5 5 5 6 5 5 5 5 4 5 5 6 4 4 3 3 5 5 4 4 3 4 5 5
6 7 7 8 8 9 8 7 7 7 7 6 6 5 5 5 5 6 5 6 5 5 5 5 6 5 5 4 5 5 4 5 4 4 5 5 5 4 4 5 5 6
8 8 8 8 8 7 8 7 6 7 6 6 5 5 5 6 6 6 5 5 6 5 6 5 5 5 4 4 5 4 4 4 4 5 5 5 5 6 4 4 4 5
8 7 8 7 8 7 8 7 6 6 6 6 6 4 4 6 6 5 5 6 7 6 5 5 5 4 3 4 5 5 5 4 5 6 6 5 4 6 6 4 4 5
8 7 7 8 9 7 8 8 7 6 5 7 7 5 4 5 6 6 6 6 6 5 5 5 4 4 4 5 5 5 5 5 4 5 5 5 6 6 6 5 6 5
8 7 8 8 9 8 9 7 7 6 5 6 6 6 7 4 4 5 5 6 6 5 5 5 5 5 5 5 5 4 4 4 4 4 4 4 4 5 6 6 6 7
8 8 9 8 9 8 8 7 7 7 5 6 7 6 5 6 4 4 5 5 6 5 5 6 5 4 5 5 4 3 3 3 3 3 4 4 4 4 5 5 6 6
8 7 8 9 9 8 8 7 7 6 6 4 5 7 5 4 6 4 5 6 5 5 5 5 4 5 5 4 4 4 4 4 4 4 4 4 4 4 4 4 5 6
8 8 8 8 8 8 7 6 6 6 6 6 4 6 6 6 4 6 4 6 5 5 5 4 5 4 4 4 4 4 3 4 4 4 4 4 4 4 5 4 5 5
7 7 8 7 7 6 6 6 6 5 5 5 5 6 6 5 6 6 5 6 5 5 4 4 5 5 4 4 3 3 3 4 3 3 4 4 4 4 4 4 4 4
7 6 6 7 7 7 7 6 6 6 5 5 5 6 5 5 5 5 6 6 5 5 5 4 5 4 3 3 4 4 4 4 3 4 4 5 5 5 4 4 4 4
7 7 7 7 7 8 7 7 7 6 6 6 6 5 5 5 6 6 6 5 5 5 4 4 4 3 5 9 7 4 4 3 3 3 3 4 5 6 5 4 5 5
8 7 7 8 7 7 6 7 7 6 6 6 6 5 6 5 6 7 6 4 5 4 4 4 3 3 9 9 10 10 5 3 3 4 4 4 4 4 6 6 5 5
8 8 8 7 7 7 7 6 6 7 6 6 6 6 5 5 7 6 5 4 4 4 4 4 4 6 9 9 9 9 7 4 3 4 4 4 4 4 5 5 6 6
8 9 8 8 7 7 7 7 7 7 6 6 6 4 4 6 5 5 5 3 4 4 4 3 3 6 9 9 9 9 9 6 3 3 3 3 4 4 5 5 5 6
8 9 9 8 7 7 7 7 7 7 5 4 5 4 5 5 4 5 4 4 4 4 4 4 4 7 10 10 9 9 8 7 2 3 3 3 4 5 4 5 5 6
8 8 9 8 8 7 7 7 7 6 6 4 5 5 5 5 4 4 4 4 4 4 5 5 4 9 9 9 9 9 9 6 3 3 3 3 4 4 5 5 5 5
9 9 9 9 8 7 8 8 7 7 7 5 5 4 3 4 3 4 4 4 4 4 5 6 4 9 9 9 9 9 9 4 3 3 3 3 4 4 4 5 4 5
9 10 10 9 8 9 9 8 8 7 5 4 6 5 5 4 4 4 3 4 4 4 5 4 3 7 8 9 10 11 6 3 3 3 3 3 4 4 4 4 4 4
9 9 10 9 9 10 9 7 5 4 4 4 7 7 6 4 4 5 4 3 4 4 4 4 3 5 8 9 10 11 8 4 3 3 3 3 3 4 4 4 4 9
8 8 8 10 9 8 8 9 7 7 5 5 5 5 5 4 4 6 5 4 3 4 5 4 2 4 8 10 10 10 7 2 4 3 4 4 5 5 5 5 6 7
7 8 7 9 9 8 7 7 6 7 6 6 5 5 6 5 5 5 6 4 4 4 4 3 3 4 6 10 9 9 10 5 3 4 6 7 7 7 8 5 5 6
Wind_Direction
157 156 151 146 142 144 145 140 141 121 117 127 130 147 132 133 121 109 95 83 86 87 79 75 73 73 70 72 76 80 74 81 64 43 68 68 53 44 37 10 2 8
145 138 130 123 119 118 121 134 131 125 132 131 129 126 117 118 91 99 106 98 85 82 78 73 68 71 73 75 75 83 72 63 57 14 59 55 42 41 40 9 344 334
133 136 139 142 141 136 129 114 113 117 127 129 118 116 121 104 105 89 96 104 95 83 74 72 72 67 73 77 78 77 73 64 53 5 55 50 25 41 17 1 355 357
129 135 134 131 133 131 126 114 107 110 116 117 124 124 111 110 108 105 95 91 94 83 74 68 69 64 68 71 79 72 73 67 47 53 64 53 40 45 10 8 354 347
133 126 124 122 120 119 118 120 125 127 123 126 113 110 115 118 110 105 98 84 87 82 73 71 64 61 63 63 66 73 55 64 32 53 53 34 8 26 6 19 2 350
110 121 126 126 126 123 121 125 132 128 127 120 125 117 113 113 111 109 103 97 86 92 82 72 66 52 55 61 63 67 62 52 20 40 44 31 356 4 5 7 1 347
128 125 117 114 112 118 119 123 123 119 118 125 113 116 124 114 109 107 107 107 101 84 82 77 71 58 47 65 65 60 46 44 29 33 29 9 8 349 358 360 348 333
118 114 118 118 120 122 120 122 120 120 129 119 116 124 121 118 114 118 111 105 95 92 89 85 80 73 53 60 53 42 29 31 26 19 14 356 0 342 336 342 336 326
122 125 125 126 123 126 123 123 123 122 126 125 125 123 107 119 128 120 114 108 103 102 96 85 79 76 60 62 55 51 34 17 20 21 9 350 344 332 329 330 334 332
128 131 128 131 128 131 127 127 128 127 131 124 127 127 122 119 113 116 110 107 101 93 83 80 66 58 60 61 62 52 44 21 8 10 2 347 332 324 327 334 329 327
135 138 135 132 129 130 131 131 135 136 137 136 131 123 122 113 96 98 102 89 87 85 78 69 67 64 59 49 48 53 51 32 12 4 353 341 327 316 315 320 318 313
140 137 137 136 134 134 137 141 142 139 137 132 132 122 111 104 110 91 94 92 85 81 82 83 76 71 67 58 45 34 31 24 14 0 347 335 323 316 311 309 308 307
145 144 141 140 140 140 139 138 137 137 133 130 126 118 117 111 99 94 72 87 82 80 74 78 77 71 66 53 42 37 34 21 4 353 336 325 309 308 308 307 304 304
146 141 141 140 136 136 137 132 130 127 122 121 116 105 102 100 96 93 85 78 79 81 78 79 75 65 53 47 41 37 30 15 10 345 332 320 311 308 308 307 307 307
142 139 134 136 138 136 134 134 129 124 118 111 103 99 91 89 86 90 92 82 71 74 73 67 72 65 56 41 40 27 37 17 0 345 332 323 321 322 322 320 315 305
144 141 144 142 141 141 140 134 129 126 119 108 99 96 93 90 86 79 79 83 83 72 72 71 67 60 30 36 33 31 23 12 357 335 329 325 322 322 322 323 318 313
145 148 146 148 146 137 136 133 130 126 115 107 99 90 90 89 91 83 78 78 86 87 78 73 61 39 35 33 27 21 22 9 3 344 338 329 321 316 318 322 319 315
151 149 148 148 145 143 137 132 126 120 113 109 105 96 92 94 84 90 90 90 91 89 79 67 51 29 34 31 25 20 13 33 30 351 328 321 314 316 313 315 314 314
156 156 152 149 147 139 136 132 125 115 114 112 107 112 101 88 97 97 96 97 94 88 77 60 57 21 34 31 24 20 16 46 22 342 325 311 313 311 310 309 310 309
161 157 152 148 142 139 136 131 124 120 113 109 113 104 101 103 98 99 103 94 89 87 78 64 47 21 32 27 23 17 18 35 359 343 325 316 311 310 307 305 302 306
164 158 149 146 144 140 134 129 125 121 117 119 117 121 121 119 118 106 96 93 82 79 78 59 34 27 29 24 21 15 19 26 4 343 331 314 305 296 294 293 295 294
164 158 152 148 146 141 137 135 132 135 135 134 115 106 102 109 88 89 92 85 84 81 75 60 27 27 25 23 17 14 19 23 6 350 332 313 300 290 289 290 291 297
169 159 155 152 150 145 144 142 139 134 132 132 118 120 116 103 107 96 94 90 83 82 78 71 43 17 21 20 18 12 23 20 359 350 320 301 294 288 286 289 297 307
167 161 155 155 154 154 149 141 127 114 132 146 134 134 117 124 122 101 81 79 78 75 81 77 54 13 19 19 19 13 16 24 350 332 311 289 284 290 304 307 303 315
158 158 158 155 154 151 147 144 146 143 135 116 113 111 118 120 104 100 93 76 73 73 67 76 69 13 14 20 16 12 14 39 354 325 306 315 328 330 333 321 314 311
154 154 157 156 148 138 134 134 132 129 133 124 117 118 118 108 100 101 102 88 72 69 60 84 71 22 8 13 12 9 2 5 345 332 334 338 342 334 328 320 312 311